Photometre #45[NE_1.6] Bure_OPE AOT

File : 20190928_45.hum

28/09/2019,06:26:56,TEMP=13.3,BA=5.48,STAT.A=8.0,ExtBa=12.66
28/09/2019,06:30:52,TEMP=14.1,BA=5.44,STAT.A=8.0,ExtBa=12.57
28/09/2019,06:35:29,TEMP=14.2,BA=5.44,STAT.A=8.0,ExtBa=12.55
28/09/2019,06:40:59,TEMP=13.9,BA=5.48,STAT.A=8.0,ExtBa=12.55
28/09/2019,06:47:38,TEMP=13.8,BA=5.48,STAT.A=8.0,ExtBa=12.55
28/09/2019,06:55:52,TEMP=13.8,BA=5.56,STAT.A=8.0,ExtBa=12.54
28/09/2019,07:06:18,TEMP=13.9,BA=5.60,STAT.B=8.0,ExtBa=12.55
28/09/2019,07:11:20,TEMP=14.4,BA=5.56,STAT.A=8.0,ExtBa=12.52
28/09/2019,07:16:59,TEMP=14.5,BA=5.56,STAT.A=8.0,ExtBa=12.52
28/09/2019,07:23:22,TEMP=14.5,BA=5.48,STAT.A=8.0,ExtBa=12.52
28/09/2019,07:30:41,TEMP=14.5,BA=5.60,STAT.A=8.0,ExtBa=12.51
28/09/2019,07:39:08,TEMP=14.6,BA=5.60,STAT.C=8.0,ExtBa=12.63
28/09/2019,07:53:18,TEMP=19.5,BA=5.40,STAT.A=6.5,ExtBa=12.24
28/09/2019,08:00:53,TEMP=15.7,BA=5.60,STAT.A=8.0,ExtBa=12.43
28/09/2019,08:15:18,TEMP=15.1,BA=5.60,STAT.A=8.0,ExtBa=12.50
28/09/2019,08:29:18,TEMP=15.4,BA=5.60,STAT.F,ExtBa=12.66
28/09/2019,08:44:16,TEMP=15.7,BA=5.60,STAT.D=8.0,ExtBa=12.67
28/09/2019,08:59:16,TEMP=16.0,BA=5.60,STAT.D=8.0,ExtBa=13.30
28/09/2019,09:14:16,TEMP=17.0,BA=5.60,STAT.D=8.0,ExtBa=13.30
28/09/2019,09:29:18,TEMP=16.5,BA=5.60,STAT.F,ExtBa=12.89
28/09/2019,09:44:16,TEMP=15.8,BA=5.60,STAT.D=8.0,ExtBa=13.53
28/09/2019,09:59:16,TEMP=17.9,BA=5.60,STAT.D=8.0,ExtBa=13.53
28/09/2019,10:14:17,TEMP=19.1,BA=5.60,STAT.D=8.0,ExtBa=13.23
28/09/2019,10:29:18,TEMP=17.7,BA=5.60,STAT.F,ExtBa=13.02
28/09/2019,10:44:16,TEMP=17.0,BA=5.60,STAT.D=8.5,ExtBa=13.24
28/09/2019,10:59:17,TEMP=17.7,BA=5.60,STAT.D=8.0,ExtBa=12.97
28/09/2019,11:14:17,TEMP=17.0,BA=5.60,STAT.D=8.0,ExtBa=12.97
28/09/2019,11:29:18,TEMP=18.0,BA=5.60,STAT.F,ExtBa=13.12
28/09/2019,11:44:17,TEMP=17.9,BA=5.60,STAT.D=8.0,ExtBa=13.07
28/09/2019,11:59:17,TEMP=17.9,BA=5.60,STAT.D=8.5,ExtBa=13.08
28/09/2019,12:14:17,TEMP=18.4,BA=5.60,STAT.D=8.0,ExtBa=13.10
28/09/2019,12:29:18,TEMP=18.9,BA=5.60,STAT.F,ExtBa=13.12
28/09/2019,12:44:16,TEMP=18.5,BA=5.60,STAT.D=8.5,ExtBa=13.01
28/09/2019,12:59:16,TEMP=18.4,BA=5.60,STAT.D=8.5,ExtBa=13.05
28/09/2019,13:14:16,TEMP=18.8,BA=5.60,STAT.D=8.5,ExtBa=13.03
28/09/2019,13:29:18,TEMP=18.3,BA=5.60,STAT.F,ExtBa=12.90
28/09/2019,13:44:16,TEMP=18.3,BA=5.60,STAT.D=8.5,ExtBa=13.01
28/09/2019,13:59:16,TEMP=18.7,BA=5.60,STAT.D=8.0,ExtBa=12.99
28/09/2019,14:14:16,TEMP=18.1,BA=5.60,STAT.D=8.5,ExtBa=12.90
28/09/2019,14:29:18,TEMP=17.6,BA=5.60,STAT.F,ExtBa=12.83
28/09/2019,14:43:17,TEMP=17.5,BA=5.60,STAT.A=8.0,ExtBa=12.82
28/09/2019,14:57:41,TEMP=17.6,BA=5.60,STAT.A=8.0,ExtBa=12.87
28/09/2019,15:09:31,TEMP=17.6,BA=5.60,STAT.A=8.0,ExtBa=12.80
28/09/2019,15:19:26,TEMP=17.7,BA=5.44,STAT.C=8.0,ExtBa=12.81
28/09/2019,15:29:58,TEMP=22.5,BA=5.48,STAT.A=6.5,ExtBa=12.56
28/09/2019,15:35:12,TEMP=19.0,BA=5.44,STAT.A=8.0,ExtBa=12.66
28/09/2019,15:41:35,TEMP=18.2,BA=5.60,STAT.A=8.0,ExtBa=12.68
28/09/2019,15:47:14,TEMP=18.1,BA=5.60,STAT.A=8.0,ExtBa=12.67
28/09/2019,15:52:16,TEMP=18.2,BA=5.60,STAT.B=8.0,ExtBa=12.66
28/09/2019,16:02:42,TEMP=17.5,BA=5.60,STAT.A=8.0,ExtBa=12.68
28/09/2019,16:10:56,TEMP=17.6,BA=5.60,STAT.A=8.0,ExtBa=12.69
28/09/2019,16:17:35,TEMP=17.9,BA=5.60,STAT.A=8.0,ExtBa=12.67
28/09/2019,16:23:05,TEMP=17.8,BA=5.56,STAT.A=8.0,ExtBa=12.65
28/09/2019,16:27:42,TEMP=17.8,BA=5.56,STAT.A=8.0,ExtBa=12.63
28/09/2019,16:31:38,TEMP=17.9,BA=5.56,STAT.A=8.0,ExtBa=12.62